This is the latest recevied weather packets stored in our database for station/object KK7KHO. If no packets are shown the sender has not sent any weather packets the latest 10 day(s).
| Time | Temp. | Humidity | Pressure | Rain* | Wind** | Luminosity | Snow |
|---|---|---|---|---|---|---|---|
| 1777818382 | 12.78° C | 89% | 1014.4 hPa | 0 mm | - | 95 W/m² | - |
| 1777818079 | 12.78° C | 89% | 1014 hPa | 0 mm | - | 86 W/m² | - |
| 1777817775 | 12.78° C | 90% | 1014.2 hPa | 0 mm | - | 79 W/m² | - |
| 1777817473 | 12.22° C | 91% | 1014.2 hPa | 0 mm | - | 69 W/m² | - |
| 1777817169 | 11.67° C | 92% | 1014.1 hPa | 0 mm | - | 63 W/m² | - |
| 1777816867 | 11.11° C | 94% | 1014.1 hPa | 0 mm | - | 56 W/m² | - |
| 1777816564 | 10.56° C | 94% | 1014 hPa | 0 mm | - | 34 W/m² | - |
| 1777816260 | 10.56° C | 94% | 1014.1 hPa | 0 mm | - | 32 W/m² | - |
| 1777815958 | 10.56° C | 94% | 1014 hPa | 0 mm | - | 29 W/m² | - |
| 1777815655 | 10.56° C | 94% | 1014.1 hPa | 0 mm | - | 30 W/m² | - |
| 1777815352 | 10° C | 95% | 1014 hPa | 0 mm | - | 28 W/m² | - |
| 1777815049 | 9.44° C | 96% | 1014 hPa | 0 mm | - | 22 W/m² | - |
| 1777814745 | 10° C | 96% | 1013.9 hPa | 0 mm | - | 18 W/m² | - |
| 1777814442 | 10° C | 96% | 1013.7 hPa | 0 mm | - | 16 W/m² | - |
| 1777814139 | 9.44° C | 96% | 1013.7 hPa | 0 mm | - | 14 W/m² | - |
| 1777813836 | 9.44° C | 96% | 1013.6 hPa | 0 mm | - | 11 W/m² | - |
| 1777813533 | 9.44° C | 96% | 1013.7 hPa | 0 mm | - | 9 W/m² | - |
| 1777813232 | 9.44° C | 96% | 1013.8 hPa | 0 mm | - | 7 W/m² | - |
| 1777812929 | 9.44° C | 95% | 1013.8 hPa | 0 mm | - | 5 W/m² | - |
| 1777812626 | 9.44° C | 95% | 1013.7 hPa | 0 mm | - | 3 W/m² | - |
| 1777812322 | 9.44° C | 95% | 1013.8 hPa | 0 mm | - | 2 W/m² | - |
| 1777812021 | 9.44° C | 95% | 1014 hPa | 0 mm | - | 1 W/m² | - |
| 1777811720 | 9.44° C | 96% | 1013.8 hPa | 0 mm | - | 1 W/m² | - |
| 1777811415 | 9.44° C | 95% | 1013.9 hPa | 0 mm | - | 0 W/m² | - |
| 1777811111 | 9.44° C | 95% | 1013.7 hPa | 0 mm | - | 0 W/m² | - |
* Rain latest hour (hover to see other rain measurements)
** Current wind speed in m/s (hover to see current wind gust speed)